TimeAST,TemperatureF,Dew PointF,Humidity,Sea Level PressureIn,VisibilityMPH,Wind Direction,Wind SpeedMPH,Gust SpeedMPH,PrecipitationIn,Events,Conditions,WindDirDegrees,DateUTC
12:00 AM,-9999,-9999,N/A,29.95,-9999.0,ENE,5.8,-,N/A,,Unknown,60,2012-10-18 04:00:00
1:00 AM,-9999,-9999,N/A,29.92,-9999.0,ENE,6.9,-,N/A,,Unknown,70,2012-10-18 05:00:00
2:00 AM,,32,,,,East,5.8,,,,,90,2012-10-18 06:00:00
2:00 AM,-9999,-9999,N/A,29.89,-9999.0,East,5.8,-,N/A,,Unknown,90,2012-10-18 06:00:00
3:00 AM,-9999,-9999,N/A,29.86,-9999.0,Variable,3.5,-,N/A,,Unknown,0,2012-10-18 07:00:00
4:00 AM,-9999,-9999,N/A,29.86,-9999.0,ENE,8.1,-,N/A,,Unknown,60,2012-10-18 08:00:00
5:00 AM,,32,,,,ENE,4.6,,,,,60,2012-10-18 09:00:00
5:00 AM,-9999,-9999,N/A,29.89,-9999.0,ENE,4.6,-,N/A,,Unknown,60,2012-10-18 09:00:00
7:00 AM,-9999,-9999,N/A,29.95,5.0,SE,10.4,-,N/A,Rain,Heavy Rain Showers,130,2012-10-18 11:00:00
8:00 AM,-9999,-9999,N/A,29.95,6.2,Variable,3.5,-,N/A,Rain,Light Rain,0,2012-10-18 12:00:00
9:00 AM,-9999,-9999,N/A,29.95,6.2,East,8.1,-,N/A,,Partly Cloudy,80,2012-10-18 13:00:00
10:00 AM,-9999,-9999,N/A,29.98,6.2,ENE,5.8,-,N/A,,Partly Cloudy,60,2012-10-18 14:00:00
11:00 AM,,32,,,12,East,6.9,,,,Partly Cloudy,80,2012-10-18 15:00:00
11:00 AM,-9999,-9999,N/A,29.95,6.2,East,6.9,-,N/A,,Scattered Clouds,80,2012-10-18 15:00:00
12:00 PM,-9999,-9999,N/A,29.92,6.2,ENE,8.1,-,N/A,,Partly Cloudy,70,2012-10-18 16:00:00
1:00 PM,-9999,-9999,N/A,29.92,6.2,ENE,11.5,-,N/A,,Partly Cloudy,70,2012-10-18 17:00:00
2:00 PM,-9999,-9999,N/A,29.89,6.2,ENE,11.5,-,N/A,,Partly Cloudy,70,2012-10-18 18:00:00
3:00 PM,-9999,-9999,N/A,29.86,6.2,ENE,12.7,-,N/A,,Partly Cloudy,60,2012-10-18 19:00:00
5:00 PM,,,,,16,East,9.2,,,,Partly Cloudy,90,2012-10-18 21:00:00
5:00 PM,-9999,-9999,N/A,29.89,6.2,East,8.1,-,N/A,,Partly Cloudy,80,2012-10-18 21:00:00
7:00 PM,-9999,-9999,N/A,29.92,6.2,NNW,4.6,-,N/A,Rain,Rain,330,2012-10-18 23:00:00
11:00 PM,,32,,,6,,2.3,,,,Clear,,2012-10-19 03:00:00
11:00 PM,-9999,-9999,N/A,29.95,-9999.0,Variable,2.3,-,N/A,,Unknown,0,2012-10-19 03:00:00